| time (UTC) | temp C | wind direction | speed KPH | gust KPH | rain 1hr cm | rain 24hr cm | rain mn cm | humidity % | barometer mb |
| 20260504194749 | 16 | 219 | 14.5 | 29.0 | 0.00 | 0.00 | 0.00 | 72 | 1013.2 |
| 20260504193745 | 15 | 254 | 16.1 | 35.4 | 0.00 | 0.00 | 0.00 | 72 | 1013.3 |
| 20260504192731 | 16 | 247 | 14.5 | 35.4 | 0.00 | 0.00 | 0.00 | 72 | 1013.3 |
| 20260504191702 | 16 | 215 | 14.5 | 33.8 | 0.00 | 0.00 | 0.00 | 71 | 1013.4 |
| 20260504190653 | 15 | 245 | 19.3 | 33.8 | 0.00 | 0.00 | 0.00 | 72 | 1013.4 |
| 20260504185715 | 15 | 223 | 19.3 | 35.4 | 0.00 | 0.00 | 0.00 | 72 | 1013.4 |
| 20260504184729 | 15 | 242 | 17.7 | 35.4 | 0.00 | 0.00 | 0.00 | 71 | 1013.8 |
| 20260504183751 | 15 | 218 | 16.1 | 33.8 | 0.00 | 0.00 | 0.00 | 71 | 1013.9 |
| 20260504182754 | 15 | 205 | 19.3 | 35.4 | 0.00 | 0.00 | 0.00 | 72 | 1013.8 |
| 20260504181727 | 15 | 215 | 17.7 | 35.4 | 0.00 | 0.00 | 0.00 | 73 | 1014.1 |
| 20260504180721 | 15 | 221 | 16.1 | 33.8 | 0.00 | 0.00 | 0.00 | 73 | 1014.1 |
| 20260504175741 | 16 | 220 | 14.5 | 32.2 | 0.00 | 0.00 | 0.00 | 73 | 1014.1 |
| 20260504174736 | 15 | 181 | 16.1 | 33.8 | 0.00 | 0.00 | 0.00 | 74 | 1014.1 |
| 20260504173708 | 15 | 238 | 16.1 | 37.0 | 0.00 | 0.00 | 0.00 | 74 | 1014.2 |
| 20260504172718 | 14 | 213 | 19.3 | 37.0 | 0.00 | 0.00 | 0.00 | 75 | 1014.2 |
| 20260504170533 | 15 | 216 | 17.7 | 30.6 | 0.00 | 0.00 | 0.00 | 74 | 1014.6 |
| 20260504160327 | 15 | 207 | 14.5 | 27.4 | 0.00 | 0.00 | 0.00 | 71 | 1015.0 |
| 20260504150254 | 15 | 230 | 11.3 | 30.6 | 0.00 | 0.00 | 0.00 | 63 | 1015.6 |
| 20260504130810 | 13 | 249 | 14.5 | 29.0 | 0.00 | 0.00 | 0.00 | 64 | 1016.2 |
| 20260504110521 | 11 | 275 | 6.4 | 19.3 | 0.00 | 0.00 | 0.00 | 66 | 1016.2 |
| 20260504100315 | 10 | 222 | 4.8 | 12.9 | 0.00 | 0.00 | 0.00 | 67 | 1016.0 |
| 20260504081027 | 10 | 245 | 3.2 | 8.0 | 0.00 | 0.00 | 0.00 | 65 | 1015.5 |
| 20260504045509 | 11 | 262 | 4.8 | 11.3 | 0.00 | 0.00 | 0.00 | 64 | 1014.7 |
| 20260504043325 | 11 | 236 | 3.2 | 9.7 | 0.00 | 0.00 | 0.00 | 63 | 1015.0 |
| 20260504041135 | 11 | 252 | 1.6 | 6.4 | 0.00 | 0.00 | 0.00 | 63 | 1014.5 |
| 20260504040109 | 10 | 266 | 1.6 | 4.8 | 0.00 | 0.00 | 0.00 | 64 | 1014.6 |
| 20260504035102 | 11 | 257 | 3.2 | 6.4 | 0.00 | 0.00 | 0.00 | 64 | 1014.6 |
| 20260504034114 | 11 | 269 | 3.2 | 11.3 | 0.00 | 0.00 | 0.00 | 64 | 1014.4 |
| 20260504033103 | 11 | 277 | 3.2 | 11.3 | 0.00 | 0.00 | 0.00 | 63 | 1014.4 |
| 20260504030859 | 11 | 243 | 1.6 | 9.7 | 0.00 | 0.00 | 0.00 | 61 | 1014.3 |
| 20260504025848 | 11 | 261 | 1.6 | 4.8 | 0.00 | 0.00 | 0.00 | 61 | 1014.3 |
| 20260504024853 | 11 | 266 | 1.6 | 8.0 | 0.00 | 0.00 | 0.00 | 61 | 1014.3 |
| 20260504021613 | 10 | 266 | 0.0 | 0.0 | 0.00 | 0.00 | 0.00 | 52 | 1014.3 |
| 20260504020638 | 10 | 266 | 0.0 | 0.0 | 0.00 | 0.00 | 0.00 | 52 | 1014.3 |
| 20260504015703 | 11 | 265 | 0.0 | 0.0 | 0.00 | 0.00 | 0.00 | 53 | 1014.3 |
| 20260504013520 | 11 | 266 | 0.0 | 0.0 | 0.00 | 0.00 | 0.00 | 46 | 1014.1 |
| 20260504012535 | 12 | 266 | 0.0 | 1.6 | 0.00 | 0.00 | 0.00 | 45 | 1014.0 |
| 20260504011554 | 12 | 266 | 0.0 | 0.0 | 0.00 | 0.00 | 0.00 | 44 | 1013.9 |
| 20260504010556 | 12 | 266 | 0.0 | 1.6 | 0.00 | 0.00 | 0.00 | 42 | 1013.8 |
| 20260504005540 | 12 | 266 | 0.0 | 1.6 | 0.00 | 0.00 | 0.00 | 40 | 1013.6 |
| 20260504004509 | 13 | 266 | 0.0 | 3.2 | 0.00 | 0.00 | 0.00 | 38 | 1013.4 |
| 20260504003502 | 13 | 266 | 1.6 | 3.2 | 0.00 | 0.00 | 0.00 | 38 | 1013.3 |
| 20260504002451 | 13 | 265 | 0.0 | 1.6 | 0.00 | 0.00 | 0.00 | 36 | 1013.2 |
| 20260504001449 | 13 | 265 | 1.6 | 8.0 | 0.00 | 0.00 | 0.00 | 36 | 1013.1 |
| 20260503235340 | 14 | 295 | 3.2 | 12.9 | 0.00 | 0.00 | 0.00 | 34 | 1012.9 |
| 20260503234329 | 14 | 299 | 4.8 | 12.9 | 0.00 | 0.00 | 0.00 | 33 | 1012.7 |
| 20260503233317 | 14 | 275 | 4.8 | 19.3 | 0.00 | 0.00 | 0.00 | 32 | 1012.6 |
| 20260503232312 | 15 | 273 | 9.7 | 24.1 | 0.00 | 0.00 | 0.00 | 32 | 1012.5 |
| 20260503231319 | 15 | 289 | 9.7 | 24.1 | 0.00 | 0.00 | 0.00 | 31 | 1012.4 |
| 20260503230338 | 15 | 323 | 11.3 | 25.7 | 0.00 | 0.00 | 0.00 | 31 | 1012.4 |
| 20260503225343 | 15 | 324 | 12.9 | 33.8 | 0.00 | 0.00 | 0.00 | 31 | 1012.3 |
| 20260503224351 | 15 | 321 | 14.5 | 33.8 | 0.00 | 0.00 | 0.00 | 31 | 1012.3 |
| 20260503223344 | 15 | 324 | 11.3 | 24.1 | 0.00 | 0.00 | 0.00 | 31 | 1012.3 |
| 20260503222348 | 15 | 248 | 9.7 | 27.4 | 0.00 | 0.00 | 0.00 | 32 | 1012.1 |
| 20260503221335 | 15 | 312 | 11.3 | 27.4 | 0.00 | 0.00 | 0.00 | 32 | 1012.1 |
| 20260503215218 | 15 | 325 | 9.7 | 24.1 | 0.00 | 0.00 | 0.00 | 33 | 1012.1 |
| 20260503214201 | 15 | 324 | 9.7 | 27.4 | 0.00 | 0.00 | 0.00 | 34 | 1012.1 |
| 20260503213133 | 15 | 325 | 11.3 | 32.2 | 0.00 | 0.00 | 0.00 | 34 | 1011.9 |
| 20260503212140 | 15 | 325 | 16.1 | 33.8 | 0.00 | 0.00 | 0.00 | 34 | 1011.9 |
| 20260503211137 | 15 | 325 | 14.5 | 33.8 | 0.00 | 0.00 | 0.00 | 34 | 1011.9 |
| 20260503210157 | 14 | 294 | 16.1 | 32.2 | 0.00 | 0.00 | 0.00 | 35 | 1011.8 |
| 20260503205145 | 14 | 325 | 12.9 | 37.0 | 0.00 | 0.00 | 0.00 | 35 | 1011.9 |
| 20260503204155 | 13 | 325 | 14.5 | 37.0 | 0.00 | 0.00 | 0.00 | 38 | 1011.8 |
| 20260503203155 | 13 | 316 | 12.9 | 30.6 | 0.00 | 0.00 | 0.00 | 37 | 1011.8 |
| 20260503202123 | 13 | 325 | 14.5 | 38.6 | 0.00 | 0.00 | 0.00 | 38 | 1011.9 |
| 20260503201054 | 13 | 289 | 17.7 | 38.6 | 0.00 | 0.00 | 0.00 | 38 | 1011.9 |
| 20260503200046 | 14 | 284 | 14.5 | 29.0 | 0.00 | 0.00 | 0.00 | 37 | 1012.2 |